Weather Roundup
Issued by NWS

Home | Current Version | Previous Version | Graphics & Text | Print | Product List | Glossary Off
Versions: 1 2 3 4 5 6 7 8 9 10 11 12 13 14 15 16 17 18 19 20 21 22 23 24 25 26 27 28 29 30 31 32 33 34 35 36 37 38 39 40 41 42 43 44 45 46 47 48 49 50

000
NZUS93 KARX 181559
HRRWXR

CURRENT HOURLY OBSERVATIONS ACROSS
MUCH OF THE UPPER MISSISSIPPI VALLEY
NATIONAL WEATHER SERVICE LA CROSSE WI
1100 AM CDT SAT APR 18 2015


...SOUTHEAST MINNESOTA...


CITY           SKY/WX    TMP DP  RH WIND       PRES   REMARKS
ROCHESTER      MOSUNNY   64  36  35 E17       30.06F
ROCHESTER/MAYO FAIR      63  34  33 E9G16     30.06F
WINONA         MOSUNNY   63  34  34 SE12      30.08S
AUSTIN         PTSUNNY   68  37  32 E14       30.03R
ALBERT LEA     PTSUNNY   66  34  30 E14       30.02S
DODGE CENTER   MOSUNNY   66  34  30 E18       30.05S
PRESTON        MOSUNNY   63  35  34 E10       30.06S
OWATONNA       MOSUNNY   66  34  30 E16       30.04S
FARIBAULT      MOSUNNY   66  34  30 E9G18     30.05F
$$

...ELSEWHERE IN MINNESOTA...


CITY           SKY/WX    TMP DP  RH WIND       PRES   REMARKS
MINNEAPOLIS    PTSUNNY   63  32  31 E14       30.07F
INTNL FALLS    SUNNY     50  28  42 E10       30.20F
DULUTH         SUNNY     46  32  58 E18G30    30.20S
RED WING       MOSUNNY   64  30  27 SE13      30.07S
REDWOOD FALLS  MOSUNNY   65  31  28 E10       30.01F
MANKATO        MOSUNNY   66  34  30 NE3       30.03F
WORTHINGTON    PTSUNNY   66  32  28 E16G24    29.99F
FAIRMONT       PTSUNNY   70  32  24 SE22      29.99F
$$

...SOUTHWEST WISCONSIN...


CITY           SKY/WX    TMP DP  RH WIND       PRES   REMARKS
LA CROSSE      MOSUNNY   66  34  30 E9        30.07F
PRAIRIE DU CHI SUNNY     69  35  28 E12       30.04F
BOSCOBEL       MOSUNNY   68  37  32 VRB7G20   30.07F
LONE ROCK      NOT AVBL
PLATTEVILLE    SUNNY     68  41  36 E18       30.06S
FORT MC COY    PTSUNNY   63  30  28 NE14G20   30.11S
VIROQUA        FAIR      63  33  32 E15G22    30.09S
WIS DELLS      MOSUNNY   57  32  39 E16G24    30.13R
$$

...ELSEWHERE IN WISCONSIN...


CITY           SKY/WX    TMP DP  RH WIND       PRES   REMARKS
MILWAUKEE      MOSUNNY   45  36  70 N22G38    30.16R
MADISON        PTSUNNY   62  35  36 E16G24    30.12S
GREEN BAY      SUNNY     49  39  68 NE17      30.21R
EAU CLAIRE     NOT AVBL
BLACK RVR FLS  FAIR      64  27  25 SE9       30.11S
MEDFORD        SUNNY     54  32  43 E14       30.14S
WAUSAU         SUNNY     57  32  38 E12       30.15R
WIS RAPIDS     SUNNY     58  30  34 E13       30.16S
MARSHFIELD     SUNNY     58  31  35 E16       30.14S
RICE LAKE      SUNNY     56  30  36 E8        30.14F
$$

...NORTHEAST IOWA...


CITY           SKY/WX    TMP DP  RH WIND       PRES   REMARKS
DECORAH        SUNNY     66  37  34 E14       30.03F
MASON CITY     CLOUDY    65  37  35 E13       30.02F
CHARLES CITY   PTSUNNY   68  34  28 E16       30.03R
OELWEIN        MOSUNNY   70  39  32 E16G23    30.02S
$$

...ELSEWHERE IN IOWA...


CITY           SKY/WX    TMP DP  RH WIND       PRES   REMARKS
DES MOINES     PTSUNNY   70  56  61 E12       29.95F
IOWA CITY      CLOUDY    72  52  49 E8        30.00F
FORT DODGE     CLOUDY    55  48  76 E9        30.01R
$$

...NORTHERN ILLINOIS...


CITY           SKY/WX    TMP DP  RH WIND       PRES   REMARKS
CHICAGO-OHARE  PTSUNNY   55  38  52 NE14      30.10S
CHICAGO-MIDWAY PTSUNNY   59  42  53 NE13      30.09S
MOLINE         PTSUNNY   73  53  49 E7        30.00F
ROCKFORD       PTSUNNY   66  37  34 NE18G25   30.09R
PEORIA         CLOUDY    73  57  57 S6        30.02R
$$

NOTE: "FAIR" INDICATES FEW OR NO CLOUDS BELOW 12,000 FEET WITH NO
SIGNIFICANT WEATHER AND/OR OBSTRUCTIONS TO VISIBILITY. WIND
SPEEDS ARE IN MILES-PER-HOUR.



USA.gov is the U.S. government's official web portal to all federal, state and local government web resources and services.